Zurück zum Katalog

INMARSAT 4-F3

AktivKommunikationGEO
NORAD 33278·PAYLOAD·🇮🇲 IM

Gestartet Aug 18, 2008 von Baikonur Cosmodrome

Loading…

TLE

AktuellSource: Space-Track

Epoche: Sep 14, 2026, 15:27 UTC

1 33278U 08039A   26257.64401398 -.00000147  00000-0  00000-0 0  9993
2 33278   4.3793  31.7479 0003071 164.0124 291.7296  1.00271226 47447

Verfolge INMARSAT 4-F3 in Echtzeit mit AllMySat

Download on the App Store